NOAA 16 DEB, 41498

Orbit data source: Space-Track

NOAA 16 DEB, 41498 is space debris in SSO originally from a launch on Thu, 21 Sep 2000 UTC launched from the Air Force Western Test Range (AFWTR). Debris objects in space refer to the collection of defunct objects orbiting the Earth. Examples of debris include non-operational satellites, rocket bodies, and fragments generated from explosions, collisions, or faulty payload assembly.

Loading next visibility...
Identifier
41498, 2000-055LW
Orbit
SSO
Country
Flag of USUS
Related business
Manufacturer
Unknown
Mission
Spacecraft
Bus & Motor
Unknown
Mass
Unknown
Launch date (UTC)
2000-09-21 (25 years ago)
Launch vehicle
Unknown
Launch site
Air Force Western Test Range (AFWTR)
Object type
Payload
Rocket body
Debris
Shape & HBR
Unknown shape, 0.1 m
Radar Cross Section
Small (<0.1 m²)

Expand to show TLE details & history
Last TLE update: 1 day ago

TLE from 1 day ago
0 NOAA 16 DEB
1 41498U 00055LW  26072.23465159  .00001650  00000-0  71832-3 0  9994
2 41498  98.9859 215.4150 0019319 217.8182 142.1640 14.25361440518143
Epoch: 2026-03-13T05:37Z
TLE epoch observation values (Epoch: 2026-03-13T05:37:53.897Z)
Latitude
-0.00003°
Longitude
-39.93267°
Altitude
821.166 km
Speed
7.437 km/s
True Right ascension
14h 21m 39s
True Declination
0° 00' 00"
Sunlit
Object was in full shadow at epoch
Visualization orbit readout
Latitude
Unknown
Longitude
Unknown
Altitude
Unknown
Speed
Unknown
Apparent Right ascension
Unknown
Apparent Declination
Unknown
Sunlit
N/A
Visualization observer readout
Local Sidereal Time
10:01:24
Azimuth
Unknown
Elevation
Unknown
Doppler factor
Unknown
Orbital elements
Apogee altitude
818.319 km
Perigee altitude
790.567 km
Semi-major axis
7,182.58 km
Eccentricity
0.00193
Inclination
98.9859°
RAAN
215.415°
Arg. of periapsis
217.8182°
True anomaly
142.29954°
Mean anomaly
142.164°
Eccentric anomaly
142.23179°
Mean motion
3.56552 °/min
Orbital period
100.97 mins
BSTAR
0.00071832
Loading maneuver chart data...
Computing Atmospheric mass density...
Loading historical data...
Loading historical data...
Loading historical data...
Loading historical data...
Loading historical data...
Loading historical data...
Loading historical data...

Documentation

Showing up to 5 results
|